Wind_Speed
48 48 47 46 45 44 50 52 50 51 54 55 58 60 61 61 64 66 68 68 70 71 71 71 72 72 72 73 75 78 81 84 87 90 92 95 97 99
49 48 52 44 47 48 51 53 54 57 60 61 62 63 64 65 67 69 70 71 72 71 71 72 73 74 76 79 83 86 91 95 98 100 103 104 105 106
49 45 47 52 51 52 55 57 59 66 65 63 65 65 67 68 69 71 74 74 73 73 74 76 78 81 85 90 95 100 103 105 101 98 95 91 87 86
40 45 47 50 54 58 63 62 64 68 67 65 66 67 69 71 73 73 73 73 75 79 81 83 86 92 97 101 105 107 101 88 78 70 65 61 58 58
45 45 43 53 55 56 59 67 66 67 66 67 68 70 71 72 72 73 74 77 82 87 90 92 98 104 107 101 90 76 68 65 66 63 61 59 57 56
45 48 48 49 58 68 67 67 67 67 68 69 71 72 71 72 74 77 78 84 87 94 98 101 105 96 76 66 64 65 64 64 64 64 64 63 59 55
47 50 50 59 64 67 67 67 68 69 70 71 71 71 72 76 80 83 86 91 95 103 102 91 76 61 59 61 64 64 65 66 64 62 61 60 59 56
54 51 56 60 63 63 66 69 70 70 70 72 73 74 78 83 86 90 95 100 97 82 68 55 57 56 59 62 63 65 66 65 61 57 55 53 54 55
50 51 56 58 62 65 67 68 68 69 72 74 77 82 84 88 93 98 96 87 70 56 55 53 58 57 61 61 63 65 65 63 53 48 47 47 48 50
58 58 59 63 65 66 66 66 67 71 76 80 84 87 92 97 98 91 72 55 50 55 62 58 62 61 61 59 60 63 65 58 48 41 37 35 38 44
55 57 60 61 63 63 67 68 71 77 81 86 91 96 98 89 72 54 51 54 56 61 66 69 65 63 60 55 56 60 58 54 47 41 36 31 30 33
55 59 61 62 64 67 70 73 77 81 86 92 96 89 71 53 52 56 60 64 68 69 68 70 63 62 57 52 48 46 47 49 47 44 42 36 29 28
54 57 60 63 67 72 76 80 83 88 92 89 72 50 48 52 58 64 70 73 74 71 67 67 59 54 51 39 33 35 40 42 43 45 46 41 32 28
55 59 63 68 73 78 82 87 90 89 72 46 39 44 50 57 63 67 69 71 68 61 53 52 46 39 34 27 24 25 33 37 38 39 41 39 34 26
61 66 71 76 81 86 90 88 72 45 31 36 42 49 55 57 54 52 55 52 44 41 39 34 27 21 20 19 18 22 24 27 37 38 34 22 15 19
68 74 80 85 89 86 71 47 26 26 32 39 45 48 47 44 43 42 40 36 31 25 30 27 23 21 20 22 22 16 17 19 24 19 11 6 10 11
77 85 89 86 74 48 24 18 25 31 37 42 40 41 38 37 37 36 34 33 32 28 27 29 30 28 27 25 14 12 10 18 16 13 12 11 13 15
86 86 75 54 26 13 17 23 29 34 39 34 35 35 33 31 31 33 33 33 32 30 26 23 22 21 24 27 23 22 19 18 19 19 20 21 21 20
78 59 35 10 10 15 21 28 31 36 32 31 32 31 30 30 28 29 28 28 29 28 27 25 24 22 18 17 25 33 13 19 16 23 27 25 25 27
46 19 10 11 14 19 26 30 32 34 31 31 31 30 27 27 27 27 28 26 26 26 27 27 27 27 25 22 20 25 30 24 19 18 19 23 26 28
14 11 11 13 16 21 28 32 31 34 32 31 31 29 28 26 25 26 28 31 30 29 29 31 31 31 29 28 26 26 27 29 28 24 23 23 27 30
12 10 11 14 17 23 28 33 34 33 35 34 32 31 29 28 27 28 29 30 30 30 31 32 31 31 31 28 24 22 23 24 28 30 34 35 33 29
15 11 12 15 18 23 27 32 35 35 34 35 34 32 30 28 27 28 31 31 27 29 31 30 30 30 28 28 28 26 25 24 26 27 32 38 40 29
Wind_Direction
281 281 282 286 291 288 289 289 285 290 294 293 293 295 297 296 296 296 296 295 294 293 292 292 291 290 289 289 289 288 287 286 285 284 283 282 279 278
280 281 279 284 290 289 290 289 283 291 297 293 294 297 297 297 297 297 296 295 294 293 291 290 290 290 290 289 289 289 288 287 286 285 283 281 280 279
281 282 275 287 286 287 290 291 287 292 292 294 297 296 297 296 296 296 296 295 294 293 293 292 292 292 293 292 291 292 292 291 290 287 284 281 279 276
278 280 278 284 291 285 285 294 297 294 296 297 297 297 296 296 296 296 295 295 294 293 292 293 294 294 294 294 294 294 293 289 286 283 281 279 277 275
272 279 284 287 291 288 281 293 295 297 298 298 297 298 298 297 296 296 296 295 295 295 295 296 298 297 297 296 294 289 287 286 285 282 279 278 275 271
283 282 285 288 289 293 298 297 297 297 298 298 298 298 297 296 297 297 297 297 297 297 297 298 298 297 294 292 292 292 291 290 287 282 276 271 270 270
273 282 283 285 288 293 296 296 297 298 298 297 297 298 299 299 299 298 299 299 299 298 299 299 294 293 294 297 298 299 299 297 292 285 277 269 264 264
276 279 284 291 293 294 294 296 297 299 299 299 301 301 300 299 299 300 301 301 302 297 293 291 293 297 297 299 299 298 299 299 296 289 282 274 265 260
280 285 292 293 294 295 297 299 300 300 301 302 301 299 300 301 303 305 305 303 300 292 290 293 295 297 298 299 297 296 297 299 293 292 287 275 265 259
292 292 295 296 298 298 299 299 302 302 301 302 302 303 304 305 306 306 302 298 295 295 294 295 294 295 295 297 295 294 295 293 287 290 292 290 274 263
292 295 296 296 299 299 302 303 302 302 303 303 304 306 307 307 305 302 300 299 297 296 294 294 294 294 295 296 294 294 290 288 284 287 293 291 277 265
298 300 299 300 302 303 302 301 302 302 303 306 309 308 307 306 305 304 302 301 298 296 294 294 295 295 294 295 292 284 284 286 286 286 290 291 282 264
300 302 303 303 302 302 303 303 303 303 306 309 307 307 308 308 306 306 305 304 303 302 299 297 297 296 297 295 285 277 278 281 284 285 287 288 284 273
303 303 303 303 303 304 304 304 305 307 308 309 310 310 310 309 309 311 311 309 308 306 301 299 301 300 300 295 288 280 280 284 284 282 283 286 288 278
306 305 305 305 305 305 305 307 309 311 314 315 314 313 313 315 317 322 326 327 323 316 316 319 328 328 318 310 302 293 291 291 286 287 293 300 269 252
309 309 308 306 305 307 310 314 316 316 317 318 317 319 323 326 326 332 343 354 357 349 343 357 355 346 334 324 327 321 303 291 293 310 320 295 268 264
313 312 308 308 309 314 321 324 322 323 322 323 325 329 331 335 336 341 349 357 1 4 356 351 348 346 344 353 18 2 309 305 315 318 321 310 285 258
314 309 311 313 321 342 338 334 332 328 327 327 328 333 336 339 341 342 345 352 357 359 3 357 351 347 344 342 346 346 334 331 307 301 303 305 299 284
313 317 319 349 8 354 346 340 337 334 333 332 335 336 339 340 342 344 352 353 354 356 356 356 351 346 340 329 319 330 326 323 307 293 297 302 297 284
325 341 49 25 7 358 352 347 343 344 342 342 344 344 343 342 344 348 351 353 351 348 345 343 340 336 332 328 317 306 309 322 316 302 290 285 282 277
23 33 26 10 3 358 359 355 349 351 352 348 349 350 348 349 346 348 350 348 348 346 344 341 340 340 340 338 335 327 320 316 315 313 301 289 276 275
5 7 3 358 357 358 358 359 355 354 355 355 352 350 349 347 348 347 347 346 345 344 345 343 341 339 340 344 345 340 337 331 328 329 325 317 311 297
343 341 345 347 349 351 353 356 358 356 356 354 354 351 350 352 349 348 347 346 346 345 343 343 342 341 344 347 346 343 343 337 327 322 323 323 329 332
Height
5702 5700 5699 5696 5693 5689 5686 5682 5678 5675 5672 5667 5660 5655 5650 5645 5639 5635 5629 5624 5618 5613 5607 5602 5597 5592 5588 5584 5580 5576 5572 5567 5562 5557 5552 5548 5545 5540
5692 5690 5687 5685 5680 5677 5674 5669 5666 5661 5658 5652 5646 5639 5634 5629 5623 5617 5611 5605 5598 5592 5587 5582 5576 5572 5567 5561 5556 5550 5544 5539 5532 5526 5519 5513 5508 5503
5681 5678 5675 5673 5669 5665 5661 5657 5653 5648 5643 5638 5630 5623 5618 5612 5605 5599 5591 5584 5578 5570 5564 5559 5553 5548 5542 5535 5528 5520 5511 5504 5497 5488 5481 5476 5470 5466
5671 5669 5666 5662 5657 5653 5649 5644 5637 5632 5627 5621 5614 5606 5600 5592 5586 5580 5573 5565 5556 5547 5541 5535 5529 5520 5512 5503 5494 5484 5475 5468 5461 5457 5452 5448 5445 5441
5660 5657 5653 5650 5644 5638 5635 5628 5621 5616 5608 5602 5596 5589 5582 5573 5567 5560 5553 5545 5534 5523 5514 5510 5500 5487 5477 5466 5457 5450 5444 5441 5439 5436 5433 5428 5426 5424
5648 5644 5640 5636 5632 5626 5619 5613 5606 5600 5592 5584 5578 5570 5562 5554 5546 5539 5534 5521 5513 5497 5488 5483 5469 5455 5446 5438 5433 5428 5423 5419 5416 5413 5410 5407 5406 5405
5634 5633 5628 5623 5617 5611 5605 5598 5591 5583 5575 5567 5559 5552 5543 5534 5525 5518 5509 5499 5488 5469 5459 5451 5439 5434 5426 5418 5411 5405 5401 5396 5392 5388 5385 5384 5385 5386
5626 5620 5615 5610 5604 5597 5591 5583 5574 5564 5556 5548 5540 5532 5524 5513 5504 5494 5484 5472 5464 5440 5430 5430 5420 5419 5409 5402 5393 5386 5380 5374 5369 5365 5363 5361 5362 5365
5613 5608 5602 5596 5589 5582 5574 5565 5556 5547 5536 5528 5521 5510 5503 5491 5482 5469 5454 5441 5432 5421 5415 5418 5406 5403 5392 5385 5374 5366 5359 5355 5353 5349 5344 5342 5341 5343
5601 5595 5588 5581 5574 5566 5558 5550 5541 5529 5520 5509 5498 5489 5478 5466 5452 5441 5429 5422 5418 5408 5395 5400 5390 5387 5379 5372 5358 5348 5339 5337 5336 5335 5332 5327 5325 5326
5590 5582 5575 5568 5559 5552 5544 5534 5524 5513 5501 5487 5476 5465 5453 5438 5425 5419 5413 5408 5403 5394 5379 5370 5371 5367 5361 5357 5345 5330 5321 5318 5320 5321 5319 5317 5315 5312
5575 5567 5559 5551 5543 5534 5525 5516 5507 5495 5482 5468 5451 5438 5427 5419 5411 5404 5397 5390 5380 5375 5359 5351 5349 5340 5342 5339 5331 5319 5311 5304 5304 5305 5305 5304 5303 5303
5562 5554 5545 5536 5527 5517 5507 5497 5487 5476 5462 5449 5436 5425 5418 5410 5400 5389 5377 5365 5355 5346 5332 5324 5327 5322 5315 5316 5314 5306 5299 5295 5294 5292 5290 5290 5291 5291
5550 5540 5531 5521 5510 5499 5488 5477 5466 5453 5441 5432 5426 5418 5411 5400 5388 5376 5360 5345 5332 5321 5315 5306 5305 5303 5301 5300 5298 5296 5290 5287 5284 5281 5279 5278 5278 5278
5535 5525 5515 5503 5491 5479 5467 5455 5443 5434 5429 5424 5418 5409 5399 5388 5376 5365 5349 5332 5319 5307 5300 5297 5295 5294 5292 5290 5289 5286 5283 5281 5271 5271 5270 5270 5268 5269
5518 5506 5495 5482 5470 5456 5444 5436 5432 5429 5424 5417 5409 5399 5388 5378 5367 5358 5346 5332 5320 5310 5300 5297 5294 5291 5288 5284 5282 5279 5274 5271 5268 5265 5265 5264 5264 5264
5501 5486 5471 5457 5446 5438 5433 5431 5428 5423 5416 5408 5399 5390 5381 5372 5361 5352 5343 5333 5323 5315 5307 5299 5292 5288 5284 5279 5278 5275 5272 5268 5265 5263 5262 5262 5261 5261
5479 5462 5448 5439 5434 5432 5430 5427 5423 5416 5408 5400 5393 5385 5376 5368 5359 5350 5342 5333 5324 5316 5309 5303 5297 5291 5285 5279 5275 5273 5269 5266 5263 5261 5259 5259 5258 5255
5455 5442 5435 5432 5433 5431 5428 5424 5418 5410 5402 5395 5388 5380 5372 5364 5357 5349 5341 5333 5325 5317 5310 5303 5297 5292 5288 5283 5275 5266 5265 5264 5262 5259 5254 5252 5252 5249
5442 5436 5435 5435 5433 5430 5426 5421 5414 5406 5398 5391 5383 5375 5369 5361 5355 5348 5340 5333 5326 5318 5311 5304 5297 5290 5285 5280 5276 5269 5260 5257 5254 5252 5249 5246 5244 5243
5444 5442 5439 5437 5434 5430 5425 5418 5411 5403 5395 5388 5380 5373 5366 5360 5353 5346 5339 5331 5324 5317 5310 5302 5294 5286 5280 5275 5270 5264 5258 5251 5247 5245 5242 5239 5235 5232
5447 5444 5441 5437 5433 5428 5423 5416 5408 5401 5393 5385 5378 5371 5365 5358 5352 5345 5338 5331 5323 5315 5308 5300 5293 5286 5279 5272 5267 5261 5256 5249 5242 5236 5230 5224 5220 5219
5448 5444 5440 5436 5432 5427 5421 5415 5408 5400 5393 5385 5378 5371 5364 5357 5350 5344 5337 5329 5322 5315 5307 5300 5292 5283 5277 5271 5264 5258 5252 5246 5240 5235 5226 5216 5208 5203